Preview of NWS' New Version of Forecast
This preview is not operational and should not be used for support decisions.
Latest weather observations around

Tahlequah, Tahlequah Municipal Airport (KTQH)

Using English Units (Switch to International System of Units)
Date/ Time (CST) Wind (mph) Vis. (mi) Weather Sky Cond. Temp (°F) Rel. Humidity Wind Chill (°F) Heat Index (°F) Pressure Precip. (in)
Air Dwpt 6 hour Altimeter (inHg) Sea level (inHg) 1 hr 3 hr 6 hr
Max Min
Feb 21 11:55 ESE 10 10 Clear CLR 46 34     61% 41   30.09        
Feb 21 11:35 SE 6 10 Clear CLR 45 34     66% 41   30.13        
Feb 21 11:15 SE 9 10 Clear CLR 45 34     66% 40   30.13        
Feb 21 10:55 SE 9 10 Clear CLR 45 36     70% 40   30.12        
Feb 21 10:35 ESE 9 10 Clear CLR 45 36     70% 40   30.14        
Feb 21 10:15 ESE 9 10 Clear CLR 45 36     70% 40   30.14        
Feb 21 09:55 SE 7 10 Clear CLR 43 36     76% 39   30.14        
Feb 21 09:35 E 8 10 Clear CLR 41 34     75% 36   30.13        
Feb 21 09:15 E 3 10 Clear CLR 41 34     75% 39   30.12        
Feb 21 08:55 ESE 8 10 Clear CLR 39 34     81% 34   30.12        
Feb 21 08:35 E 7 10 Clear CLR 37 34     87% 32   30.11        
Feb 21 08:15 E 5 10 Clear CLR 37 34     87% 34   30.1        
Feb 21 07:55 E 6 10 Clear CLR 37 34     87% 33   30.11        
Feb 21 07:35 Calm 10 Clear CLR 34 32     93%     30.1        
Feb 21 07:15 Calm 10 Clear CLR 34 32     93%     30.08        
Feb 21 06:55 Calm 10 Clear CLR 34 32     93%     30.09        
Feb 21 06:35 Calm 10 Clear CLR 34 32     93%     30.09        
Feb 21 06:15 Calm 10 Clear CLR 34 32     93%     30.09        
Feb 21 05:55 Calm 10 Clear CLR 34 32     93%     30.09        
Feb 21 05:35 Calm 10 Clear CLR 32 32     100%     30.09        
Feb 21 05:15 Calm 10 Clear CLR 32 32     100%     30.1        
Feb 21 04:55 Calm 10 Clear CLR 32 32     100%     30.08        
Feb 21 04:35 Calm 10 Clear   34 32     93%     30.08        
Feb 21 04:15 Calm 10 Clear   34 32     93%     30.07        
Feb 21 03:55 Calm 10 Clear   34 32     93%     30.06        
Feb 21 03:35 Calm 10 Clear CLR 34 32     93%     30.05        
Feb 21 03:15 Calm 10 Clear CLR 36 32     87%     30.04        
Feb 21 02:55 ENE 5 10 Clear CLR 36 32     87% 32   30.05        
Feb 21 02:35 Calm 10 Clear CLR 36 32     87%     30.06        
Feb 21 02:15 Calm 10 Clear CLR 36 32     87%     30.06        
Feb 21 01:55 Calm 10 Clear CLR 36 32     87%     30.06        
Feb 21 01:35 Calm 10 Clear CLR 36 32     87%     30.07        
Feb 21 01:15 Calm 10 Clear CLR 36 32     87%     30.07        
Feb 21 00:55 Calm 10 Clear CLR 36 32     87%     30.07        
Feb 21 00:35 Calm 10 Clear CLR 37 32     81%     30.07        
Feb 21 00:15 Calm 10 Clear CLR 37 32     81%     30.06        
Feb 20 23:55 Calm 10 Clear CLR 37 32     81%     30.06        
Feb 20 23:35 Calm 10 Clear CLR 37 32     81%     30.06        
Feb 20 23:15 Calm 10 Clear CLR 37 32     81%     30.06        
Feb 20 22:55 NNE 3 10 Clear CLR 37 32     81% 35   30.05        
Feb 20 22:35 Calm 10 Clear CLR 39 32     75%     30.05        
Feb 20 22:15 Calm 10 Clear CLR 39 34     81%     30.04        
Feb 20 21:55 Calm 10 Clear CLR 39 34     81%     30.04        
Feb 20 21:35 N 5 10 Clear   39 34     81% 36   30.02        
Feb 20 21:15 N 3 10 Clear   37 34     87% 35   30.02        
Feb 20 20:55 NNW 6 10 Clear   36 34     93% 31   30.01        
Feb 20 20:35 Calm 10 Clear CLR 37 36     93%     30        
Feb 20 20:15 Calm 10 Clear CLR 37 34     87%     29.99        
Feb 20 19:55 Calm 10 Clear CLR 39 34     81%     29.98        
Feb 20 19:35 Calm 10 Clear CLR 41 34     75%     29.97        
Feb 20 19:15 Calm 10 Clear CLR 39 34     81%     29.96        
Feb 20 18:55 Calm 10 Clear CLR 41 34     75%     29.96        
Feb 20 18:35 Calm 10 Clear CLR 43 34     70%     29.94        
Feb 20 18:15 Calm 10 Clear CLR 43 34     70%     29.93        
Feb 20 17:55 Calm 10 Clear CLR 45 34     66%     29.93        
Feb 20 17:35 Calm 10 Clear CLR 46 32     57%     29.92        
Feb 20 17:15 WSW 5 10 Clear CLR 46 34     61% 44   29.92        
Feb 20 16:55 WSW 5 10 Clear CLR 46 34     61% 44   29.91        
Feb 20 16:35 Calm 10 Clear CLR 46 34     61%     29.91        
Feb 20 16:15 WSW 3 10 Clear CLR 46 34     61% 45   29.91        
Feb 20 15:55 SW 7 10 Clear CLR 48 34     57% 45   29.9        
Feb 20 15:35 WSW 8 10 Clear CLR 48 34     57% 45   29.9        
Feb 20 15:15 W 11 10 Clear CLR 48 34     57% 43   29.89        
Feb 20 14:55 WSW 8 10 Clear CLR 48 34     57% 45   29.89        
Feb 20 14:35 SW 10 10 Clear CLR 46 34     61% 41   29.89        
Feb 20 14:15 WSW 11 10 Partly Cloudy SCT029 SCT110 46 34     61% 41   29.89        
Feb 20 13:55 WSW 7 10 Partly Cloudy SCT029 46 34     61% 43   29.89        
Feb 20 13:35 WSW 9 10 Partly Cloudy SCT027 46 34     61% 42   29.89        
Feb 20 13:15 SSW 9 10 Mostly Cloudy BKN025 46 34     61% 42   29.89        
Feb 20 12:55 SSW 13 10 Mostly Cloudy BKN025 45 34     66% 38   29.9        
Feb 20 12:35 SW 11 10 Mostly Cloudy BKN027 BKN032 45 34     66% 39   29.91        
Feb 20 12:15 WSW 9 10 Mostly Cloudy BKN025 BKN090 45 36     70% 40   29.91        
Feb 20 11:55 SW 7 10 Partly Cloudy SCT021 SCT027 45 36     70% 41   29.91        
Feb 20 11:35 Calm 10 Partly Cloudy SCT017 41 34     75%     29.92        
Feb 20 11:15 W 6 10 Mostly Cloudy BKN015 BKN020 39 34     81% 35   29.93        
Feb 20 10:55 WSW 7 10 Cloudy OVC013 37 34     87% 32   29.93        
Feb 20 10:35 SW 6 10 Cloudy OVC016 36 36     100% 31   29.92        
Feb 20 10:15 WSW 7 10 Cloudy OVC016 36 36     100% 30   29.92        
Feb 20 09:55 WSW 7 10 Cloudy OVC014 36 36     100% 30   29.92        
Feb 20 09:35 WSW 13 10 Cloudy OVC013 36 36     100% 27   29.92        
Feb 20 09:15 WSW 8 10 Cloudy OVC011 36 34     93% 29   29.91        
Feb 20 08:55 WSW 8 10 Cloudy OVC009 34 34     100% 27   29.9        
Feb 20 08:35 W 5 10 Cloudy BKN009 OVC026 34 34     100% 29   29.89        
Feb 20 08:15 W 6 10 Cloudy OVC009 34 34     100% 29   29.9        
Feb 20 07:55 WSW 6 10 Cloudy BKN008 OVC013 34 34     100% 29   29.89        
Feb 20 07:35 W 6 10 Cloudy OVC009 34 34     100% 29   29.88        
Feb 20 07:15 WSW 6 10 Cloudy BKN009 OVC012 34 34     100% 29   29.89        
Feb 20 06:55 WSW 8 10 Cloudy OVC007 34 34     100% 27   29.88        
Feb 20 06:35 WSW 7 10 Cloudy OVC007 34 34     100% 28   29.89        
Feb 20 06:15 WSW 6 10 Cloudy OVC007 34 34     100% 29   29.87        
Feb 20 05:55 WSW 9 10 Cloudy OVC007 34 34     100% 26   29.87        
Feb 20 05:35 WSW 7 10 Cloudy OVC007 34 34     100% 28   29.87        
Feb 20 05:15 SW 6 10 Cloudy OVC005 34 34     100% 29   29.87        
Feb 20 04:55 WSW 5 10 Cloudy OVC005 34 34     100% 29   29.86        
Feb 20 04:35 SW 5 10 Cloudy OVC005 34 34     100% 29   29.86        
Feb 20 04:15 SW 3 10 Cloudy OVC005 34 34     100% 31   29.87        
Feb 20 03:55 SW 5 10 Cloudy OVC005 34 34     100% 29   29.87        
Feb 20 03:35 Calm 10 Cloudy OVC005 34 34     100%     29.87        
Feb 20 03:15 SSW 5 10 Cloudy OVC005 34 34     100% 29   29.87        
Feb 20 02:55 SW 5 10 Cloudy OVC005 34 34     100% 29   29.88        
Feb 20 02:35 SSW 3 10 Cloudy OVC005 34 34     100% 31   29.87        
Feb 20 02:15 Calm 10 Cloudy OVC005 34 34     100%     29.87        
Feb 20 01:55 Calm 10 Cloudy OVC005 34 34     100%     29.87        
Feb 20 01:35 Calm 10 Cloudy OVC005 34 34     100%     29.87        
Feb 20 01:15 Calm 7 Cloudy OVC003 34 34     100%     29.87        
Feb 20 00:55 Calm 5 Fog/Mist OVC003 34 34     100%     29.87   0    
Feb 20 00:35 Calm 5 Fog/Mist OVC003 34 34     100%     29.9   0    
Feb 20 00:15 Calm 5 Fog/Mist OVC007 34 34     100%     29.9   0    
Feb 19 23:55 Calm 4 Fog/Mist OVC005 34 34     100%     29.91        
Feb 19 23:35 Calm 10 Cloudy OVC005 34 34     100%     29.92        
Feb 19 23:15 Calm 10 Cloudy OVC005 34 34     100%     29.92        
Feb 19 22:55 Calm 10 Cloudy OVC005 34 34     100%     29.91        
Feb 19 22:35 Calm 10 Clear   34 34     100%     29.91        
Feb 19 22:15 Calm 10 Clear   34 34     100%     29.92        
Feb 19 21:55 Calm 7 Clear   34 34     100%     29.92   0    
Feb 19 21:35 Calm 7 Cloudy BKN004 OVC008 34 34     100%     29.94   0    
Feb 19 21:15 Calm 7 Cloudy BKN004 OVC008 34 34     100%     29.95        
Feb 19 20:55 Calm 5 Fog/Mist SCT004 OVC007 34 34     100%     29.95   0    
Feb 19 20:35 Calm 5 Fog/Mist OVC005 34 34     100%     29.95   0    
Feb 19 20:15 Calm 4 Fog/Mist OVC005 34 34     100%     29.96        
Feb 19 19:55 Calm 5 Fog/Mist OVC003 34 34     100%     29.96   0    
Feb 19 19:35 Calm 5 Fog/Mist BKN003 OVC009 34 34     100%     29.95   0    
Feb 19 19:15 Calm 4 Fog/Mist OVC009 34 34     100%     29.96   0    
Feb 19 18:55 Calm 5 Fog/Mist BKN008 OVC011 34 34     100%     29.99   0    
Feb 19 18:35 Calm 5 Fog/Mist OVC011 34 34     100%     29.97   0    
Feb 19 18:15 Calm 5 Fog/Mist BKN009 OVC013 34 34     100%     29.98   0    
Feb 19 17:55 Calm 10 Cloudy OVC009 34 34     100%     29.99        
Feb 19 17:35 Calm 10 Cloudy BKN011 OVC016 34 34     100%     29.98        
Feb 19 17:15 E 3 10 Mostly Cloudy SCT005 SCT013 BKN020 34 34     100% 31   29.98        
Feb 19 16:55 E 8 10 Cloudy SCT005 BKN010 OVC017 34 34     100% 27   29.98   0    
Feb 19 16:35 E 8 10 Cloudy BKN010 OVC016 34 34     100% 27   30.01   0    
Feb 19 16:15 E 6 7 Cloudy BKN010 OVC021 34 34     100% 29   30.04   0    
Feb 19 15:55 NE 3 5 Fog/Mist SCT006 SCT014 BKN023 34 34     100% 31   30.04   0    
Feb 19 15:35 Calm 7 Mostly Cloudy SCT006 BKN023 BKN028 36 34     93%     30.05   0    
Feb 19 15:15 Calm 10 Cloudy OVC030 36 34     93%     30.06   0    
Feb 19 14:55 E 3 10 Cloudy BKN007 OVC032 36 32     87% 33   30.06   0    
Feb 19 14:35 ESE 5 10 Cloudy OVC007 36 32     87% 32   30.07   0    
Feb 19 14:15 ESE 15 10 Cloudy OVC007 36 30     81% 26   30.09   0    
Feb 19 13:55 E 9 10 Partly Cloudy SCT007 SCT065 37 27     65% 31   30.11        
Feb 19 13:35 E 5 10 Partly Cloudy SCT090 39 23     52% 36   30.14        
Feb 19 13:15 ENE 5 10 Partly Cloudy SCT090 41 23     48% 38   30.14        
Feb 19 12:55 ENE 10 10 Clear CLR 41 23     48% 35   30.11        
Feb 19 12:35 E 10 10 Clear CLR 41 23     48% 35   30.14        
Feb 19 12:15 E 14 10 Clear CLR 41 23     48% 33   30.17        
Feb 19 11:55 E 11 10 Clear CLR 41 23     48% 34   30.19        
Feb 19 11:35 E 8 10 Clear CLR 41 23     48% 36   30.21        
Feb 19 11:15 E 9 10 Clear CLR 39 23     52% 33   30.23        
Feb 19 10:55 E 10 10 Clear CLR 37 23     56% 30   30.24        
Feb 19 10:35 E 11 10 Clear CLR 36 23     60% 28   30.25        
Feb 19 10:15 ENE 10 10 Clear CLR 36 23     60% 28   30.27        
Feb 19 09:55 ENE 8 10 Partly Cloudy SCT100 34 23     64% 27   30.28        
Feb 19 09:35 ENE 8 10 Clear CLR 34 23     64% 27   30.29        
Feb 19 09:15 ENE 5 10 Clear CLR 34 23     64% 29   30.3        
Feb 19 08:55 ENE 5 10 Clear CLR 32 23     69% 27   30.31        
Feb 19 08:35 E 8 10 Clear CLR 32 23     69% 25   30.31        
Feb 19 08:15 E 5 10 Clear CLR 32 23     69% 27   30.32        
Feb 19 07:55 ENE 3 10 Partly Cloudy SCT100 32 23     69% 29   30.32        
Feb 19 07:35 ENE 5 10 Partly Cloudy SCT100 32 23     69% 27   30.31        
Feb 19 07:15 E 6 10 Partly Cloudy SCT100 32 23     69% 26   30.32        
Feb 19 06:55 ENE 7 10 Partly Cloudy SCT100 32 23     69% 26   30.32        
Feb 19 06:35 ENE 8 10 Clear   32 23     69% 25   30.32        
Feb 19 06:15 E 7 10 Clear   32 23     69% 26   30.33        
Feb 19 05:55 E 6 10 Clear   32 23     69% 26   30.33        
Feb 19 05:35 E 7 10 Clear CLR 32 23     69% 26   30.33        
Feb 19 05:15 ENE 6 10 Clear CLR 32 23     69% 26   30.33        
Feb 19 04:55 NE 3 10 Partly Cloudy SCT120 32 23     69% 29   30.33        
Feb 19 04:35 E 8 10 Clear CLR 32 23     69% 25   30.33        
Feb 19 04:15 E 10 10 Partly Cloudy SCT110 32 23     69% 24   30.33        
Feb 19 03:55 E 6 10 Partly Cloudy SCT110 32 23     69% 26   30.35        
Feb 19 03:35 ENE 7 10 Clear CLR 32 23     69% 26   30.36        
Feb 19 03:15 ENE 7 10 Clear CLR 32 23     69% 26   30.37        
Feb 19 02:55 ENE 7 10 Clear CLR 32 23     69% 26   30.38        
Feb 19 02:35 ENE 6 10 Clear CLR 32 23     69% 26   30.39        
Feb 19 02:15 E 8 10 Partly Cloudy SCT110 32 23     69% 25   30.39        
Feb 19 01:55 ENE 8 10 Partly Cloudy SCT100 32 23     69% 25   30.39        
Feb 19 01:35 ENE 7 10 Partly Cloudy SCT110 32 23     69% 26   30.41        
Feb 19 01:15 ENE 7 10 Clear CLR 32 23     69% 26   30.41        
Feb 19 00:55 ENE 8 10 Partly Cloudy SCT110 32 23     69% 25   30.41        
Feb 19 00:35 ENE 14 10 Partly Cloudy SCT110 32 23     69% 22   30.4        
Feb 19 00:15 ENE 9 10 Partly Cloudy SCT110 32 23     69% 24   30.41        
Feb 18 23:55 NE 6 10 Partly Cloudy SCT100 32 23     69% 26   30.42        
Feb 18 23:35 ENE 10 10 Clear CLR 32 23     69% 24   30.4        
Feb 18 23:15 NE 7 10 Partly Cloudy SCT110 32 23     69% 26   30.41        
Feb 18 22:55 NE 9 10 Clear CLR 32 23     69% 24   30.42        
Feb 18 22:35 NE 6 10 Clear CLR 32 23     69% 26   30.43        
Feb 18 22:15 NE 6 10 Clear CLR 32 23     69% 26   30.44        
Feb 18 21:55 NE 9 10 Clear CLR 32 23     69% 24   30.43        
Feb 18 21:35 NE 10 10 Clear CLR 32 23     69% 24   30.43        
Feb 18 21:15 NE 9 10 Clear CLR 32 23     69% 24   30.42        
Feb 18 20:55 NNE 8 10 Clear CLR 32 21     64% 25   30.42        
Feb 18 20:35 NNE 8 10 Clear CLR 32 21     64% 25   30.43        
Feb 18 20:15 NNE 7 10 Clear CLR 32 21     64% 26   30.42        
Feb 18 19:55 NNE 5 10 Clear CLR 32 21     64% 27   30.42        
Feb 18 19:35 NNE 6 10 Clear CLR 32 21     64% 26   30.41        
Feb 18 19:15 NNE 5 10 Clear CLR 32 21     64% 27   30.41        
Feb 18 18:55 NNE 6 10 Clear CLR 32 21     64% 26   30.4        
Feb 18 18:35 NNE 9 10 Clear CLR 34 21     60% 26   30.39        
Feb 18 18:15 NNE 7 10 Clear CLR 34 21     60% 28   30.38        
Feb 18 17:55 NNE 6 10 Clear CLR 34 21     60% 29   30.37        
Feb 18 17:35 NNE 9 10 Clear CLR 36 21     55% 29   30.37        
Feb 18 17:15 NE 7 10 Clear CLR 36 21     55% 30   30.37        
Feb 18 16:55 NNE 8 10 Clear CLR 36 21     55% 29   30.37        
Feb 18 16:35 NNE 10 10 Clear CLR 36 21     55% 28   30.37        
Feb 18 16:15 NNE 13 10 Clear CLR 37 21     52% 29   30.37        
Feb 18 15:55 NE 8 10 Clear CLR 37 21     52% 31   30.38        
Feb 18 15:35 NE 9 10 Clear CLR 37 21     52% 31   30.39        
Feb 18 15:15 NNE 9 10 Clear CLR 37 21     52% 31   30.39        
Feb 18 14:55 NE 9 10 Clear CLR 37 19     48% 31   30.4        
Feb 18 14:35 NNE 10 10 Clear CLR 37 19     48% 30   30.4        
Feb 18 14:15 NNE 7 10 Clear CLR 37 19     48% 32   30.41        
Feb 18 13:55 N 10 10 Clear CLR 37 19     48% 30   30.41        
Feb 18 13:35 NNE 6 10 Clear CLR 37 19     48% 33   30.42        
Feb 18 13:15 NNE 10 10 Clear CLR 36 19     51% 28   30.42        
Feb 18 12:55 NE 7 10 Clear CLR 36 19     51% 30   30.43        
Feb 18 12:35 ENE 9 10 Clear CLR 36 19     51% 29   30.44        
Feb 18 12:15 N 5 10 Clear CLR 36 21     55% 32   30.44        
Feb 18 11:55 ENE 7 10 Clear CLR 36 21     55% 30   30.45        
Feb 18 11:35 Calm 10 Clear CLR 34 19     55%     30.45        
May 15 08:55 Calm 10 Clear CLR 64 63     94%     29.98        
Notice The following observation data may not be complete
May 15 01:15   10 Clear CLR          %              
May 15 00:35 Calm 10 Clear CLR 70 64     83%     29.96        
May 14 23:55 Calm 10 Clear CLR 70 64     83%     29.97        
May 14 12:15 SSW 9 10 Clear CLR 84 64     52%   86 29.99        
May 14 11:15 SSW 8 10 Clear CLR 82 68     62%   85 30        
May 14 05:35 Calm 10 Clear   66 63     88%     29.97        
May 13 22:40 Calm 10 Clear CLR 72 63     73%   72 29.99        
May 13 16:15 SSE 17 10 Clear CLR 86 64     49%   88 29.98        
May 13 14:15 S 10 10 Clear CLR 86 64     49%   88 30.02        
May 13 13:35 SSE 11 10 Clear CLR 86 66     52%   88 30.03        
Notice The following observation data may not be complete
May 13 06:15   10 Clear CLR          %              
May 13 04:55 Calm 10 Clear CLR 63 63     100%     29.99        
May 12 22:55 SE 3 10 Clear CLR 70 63     78%     29.99        
May 12 15:55 S 14 10 Clear   82 64     55%   84 29.96        
May 12 09:35 S 16 10 Clear CLR 73 64     73%   74 29.98        
May 12 04:35 S 8 10 Clear CLR 70 61     73%     29.91        
May 12 01:15 Calm 10 Clear CLR 70 61     73%     29.91        
May 12 00:15 SSE 6 10 Clear CLR 72 61     69%   72 29.9        
May 11 22:55 SSE 6 10 Clear CLR 72 61     69%   72 29.9        
May 11 21:35 SSE 6 10 Clear CLR 73 61     65%   73 29.85        
May 11 15:15   10 Clear CLR 82 61     48%   83 29.85        
May 11 08:35 S 15 10 Clear CLR 72 61     69%   72 29.92        
Jun 12 05:55 SE 6 10 Partly Cloudy SCT020 68 64     88%     29.95        
Jun 12 03:55 SSE 3 10 Clear CLR 70 63     78%     29.94        
Notice The following observation data may not be complete
Jun 11 23:35   10 Clear            %              
Jun 11 19:55 SSE 10 10 Clear CLR 81 64     58%   82 29.9        
Notice The following observation data may not be complete
Jun 11 10:35   10 Partly Cloudy SCT024 SCT030          %              
Notice The following observation data may not be complete
Jun 10 16:35   10 Partly Cloudy SCT039          %              
Jun 10 14:55 S 16 10 Partly Cloudy SCT039 84 66     55%   87 29.91        
Jun 10 13:15 SSE 14 10 Clear CLR 82 64     55%   84 29.91        
Notice The following observation data may not be complete
Jun 10 11:15   10 Clear CLR          %              
Jun 10 10:15 SSE 17 10 Clear CLR 77 59     54%   77 29.93        
Notice The following observation data may not be complete
Jun 10 09:15   10 Clear CLR          %              
Jun 09 16:35 SSE 6 10 Clear   82 57     42%   82 29.91        
Jun 09 09:35 SSE 7 10 Clear CLR 73 59     61%   73 29.98        
Jun 08 22:55 Calm 10 Clear CLR 59 57     94%     29.96        
Jun 08 12:55 Calm 10 Clear CLR 81 52     37%   80 30.04        
Jun 08 08:55 Calm 10 Clear CLR 70 55     60%     30.08        
Jun 08 08:15 ESE 3 10 Clear CLR 64 55     73%     30.06        
Jun 07 23:35 Calm 10 Clear CLR 61 55     82%     30.04        
Jun 07 22:35 Calm 10 Clear CLR 61 55     82%     30.03        
Jun 07 13:55 E 10 10 Clear CLR 81 52     37%   80 30.05        
Jun 07 12:15 ENE 8 10 Clear CLR 79 54     42%   78 30.07        
Jun 07 08:55 ENE 5 10 Clear CLR 66 54     64%     30.05        
Jun 06 15:15 NNE 7 10 Clear CLR 86 61     43%   86 29.9        
Jun 06 12:35 N 8 10 Clear CLR 86 63     46%   87 29.91        
Notice The following observation data may not be complete
Jun 06 07:15   10 Clear CLR          %              
Jun 06 05:15 Calm 0.25 Fog VV002 61 61     100%     29.89        
Notice The following observation data may not be complete
Jun 06 03:35   0.5 Fog VV005          %              
Notice The following observation data may not be complete
Jun 05 20:35   10 Clear CLR          %              
Jun 05 18:15 NE 6 10 Partly Cloudy SCT040 SCT046 SCT050 84 68     58%   87 29.79        
Jun 05 15:55 N 9 10 Partly Cloudy SCT035 84 70     62%   88 29.79